{"data":{"norad_id":53209,"intl_designator":"2022-084W","name":"STARLINK-4423","alt_names":[],"object_type":"PAYLOAD","status":"ACTIVE","operator":null,"country":"US","launch_date":"2022-07-22","launch_site_code":"AFWTR","launch_vehicle":null,"mission":null,"orbit_class":"UNKNOWN","rcs_meters":null,"size_class":null,"mass_kg":null,"dimensions":null,"purposes":["comms"],"wikipedia_slug":null,"has_3d_model":false,"image_url":null,"decayed_at":null,"tle_current":{"epoch":"2026-09-19T22:48:16.856640Z","epoch_age_seconds":119755,"freshness":"FRESH","line1":"1 53209U 22084W   26262.95019510  .00000559  00000+0  19645-4 0  9990","line2":"2 53209  97.2849 317.7271 0000946 109.1967 250.9378 15.33439831228602","mean_motion":15.33439831,"eccentricity":9.46e-5,"inclination_deg":97.2849,"raan_deg":317.7271,"arg_perigee_deg":109.1967,"mean_anomaly_deg":250.9378,"bstar":1.9645e-5,"rev_number":22860,"period_min":93.906521200831,"perigee_km":464.91114022924,"apogee_km":466.20596742802,"semimajor_km":6843.6955538286,"source":"CELESTRAK","updated_at":"2026-09-20T09:00:40.192789Z"}}}